TimeMDT,TemperatureF,Dew PointF,Humidity,Sea Level PressureIn,VisibilityMPH,Wind Direction,Wind SpeedMPH,Gust SpeedMPH,PrecipitationIn,Events,Conditions,WindDirDegrees,DateUTC
12:53 AM,37.9,32.0,79,30.22,10.0,Calm,Calm,-,N/A,,Clear,0,2011-10-31 06:53:00
1:53 AM,35.1,30.9,85,30.22,10.0,WSW,3.5,-,N/A,,Clear,250,2011-10-31 07:53:00
2:53 AM,34.0,30.0,85,30.21,10.0,Calm,Calm,-,N/A,,Clear,0,2011-10-31 08:53:00
3:53 AM,37.0,30.9,79,30.19,10.0,Calm,Calm,-,N/A,,Clear,0,2011-10-31 09:53:00
4:53 AM,37.9,30.9,76,30.17,10.0,Calm,Calm,-,N/A,,Clear,0,2011-10-31 10:53:00
5:53 AM,37.9,30.0,73,30.17,10.0,Calm,Calm,-,N/A,,Clear,0,2011-10-31 11:53:00
6:53 AM,37.0,28.9,73,30.20,10.0,Calm,Calm,-,N/A,,Clear,0,2011-10-31 12:53:00
7:53 AM,36.0,28.9,76,30.20,10.0,Calm,Calm,-,N/A,,Clear,0,2011-10-31 13:53:00
8:53 AM,39.9,32.0,73,30.22,10.0,SSE,3.5,-,N/A,,Clear,160,2011-10-31 14:53:00
9:53 AM,46.9,30.0,52,30.21,10.0,SE,6.9,-,N/A,,Clear,140,2011-10-31 15:53:00
10:53 AM,50.0,30.2,47,30.21,10.0,SE,3.5,-,N/A,,Clear,140,2011-10-31 16:53:00
11:53 AM,53.1,30.0,41,30.18,10.0,Calm,Calm,-,N/A,,Clear,0,2011-10-31 17:53:00
12:53 PM,55.9,28.0,34,30.14,10.0,Calm,Calm,-,N/A,,Clear,0,2011-10-31 18:53:00
1:53 PM,57.9,28.9,33,30.10,10.0,Calm,Calm,-,N/A,,Clear,0,2011-10-31 19:53:00
2:53 PM,61.0,30.0,31,30.06,10.0,SSE,3.5,-,N/A,,Clear,150,2011-10-31 20:53:00
3:53 PM,63.0,30.9,30,30.02,10.0,NNW,8.1,-,N/A,,Clear,340,2011-10-31 21:53:00
4:53 PM,62.1,32.0,32,30.01,10.0,NW,5.8,-,N/A,,Clear,310,2011-10-31 22:53:00
5:53 PM,59.0,32.0,36,30.01,10.0,NW,5.8,-,N/A,,Clear,320,2011-10-31 23:53:00
6:53 PM,53.1,33.1,47,30.03,10.0,NW,4.6,-,N/A,,Clear,320,2011-11-01 00:53:00
7:53 PM,48.2,33.8,58,30.06,10.0,Calm,Calm,-,N/A,,Clear,0,2011-11-01 01:53:00
8:53 PM,45.0,33.1,63,30.04,10.0,Calm,Calm,-,N/A,,Clear,0,2011-11-01 02:53:00
9:53 PM,45.0,34.0,65,30.01,10.0,Calm,Calm,-,N/A,,Clear,0,2011-11-01 03:53:00
10:53 PM,42.1,34.0,73,30.01,10.0,West,3.5,-,N/A,,Clear,260,2011-11-01 04:53:00
11:53 PM,39.9,33.1,77,29.99,10.0,WSW,3.5,-,N/A,,Clear,240,2011-11-01 05:53:00